BALQSSONG
?

단축키

Prev이전 문서

Next다음 문서

+ - Up Down Comment
?

단축키

Prev이전 문서

Next다음 문서

+ - Up Down Comment

130808 MBLAQ & REIK - Press Conference @ El Universal TV

.

 

인터넷 기사 보려면 클릭

  • 승수니 2013.08.09 10:16
    승호..위주로..편집을 한 것 같은...이 느낌은 뭐지?^^ 아~ 많이 나온다 우리 승호~~^^
  • 승수니 2013.08.09 14:11
    편집한 사람이 승호가 맘에 들었나? ㅋㅋ
  • 승수니 2013.08.11 09:23

    위에 뉴스 영어 번역본이야.

     

    “Two groups, the first a trio of bohemian musicians.

    The second, 5 young men emerging from a global phenomenon, KPop

     

     

    That’s right, Reik and the Korean group MBLAQ met up to exchange their culture and experiences.

    El Universal (The Universal) exclusively witnessed this meet up between the two music groups.

    The Mexican group, creator of the great hit “Que Vida La Mia” (“What Life of Mine”),

    were in charge of welcoming the Oriental quintet to show them the cultural beauty of Mexico.

    In October, they (Reik) will travel to South Korea to be well requited.

     

    Jesus: “The truth is that this is an experiment. This is the first time something like this is being done.

    The first time this is being attempted. We are very proud and honored to represent Mexico and

    be able to take our music there (to South Korea).

    There are a lot of good things to Mexican Pop. There are a lot of good things in it.”

     

    Even though this is the first time the Oriental group visits Mexico,

    the members assured us they already knew a few things about the Mexican culture.

    During their visit to Mexico, MBLAQ, with Reik as their tour guide,

    toured a few touristic points throughout the city.

     

    Seungho: “We went to Reforma, Reik gave us a tour from Reforma to Zocalo.”

     

    Even though MBLAQ sings in Korean,

    they say the language is not a barrier for them – Music is universal.

     

    On his part, Hong Sang Pyo, president of KOCCA, the company in charge of this exchange,

    explained why KPop has success throughout the world.

     

    Hang Sang Pyo: “During the last decade,

    KPop has been driven through a system that looks to create the perfect idols of quality through a private sector.

    From it’s planning stages it must be a factor of success.

    To show a performance of high perfection with the objective to advance on the global market.”

     

    With an almost sold out venue,

    the Korean group with hold their concert this 8th of August in the Pepsi Center in Mexico City,

    just another proof of the power KPop has in our country.

     

    With information from Janice Meridan, El Universal Television.”

     

     

    Transcription translation by: @evieblue21

?

DATA01

출처는 정확히 해주시고, 펌금지 된 자료는 허락을 받은 후 게시해주세요. 직찍과 직캠의 2차가공 게시물을 금지합니다.

List of Articles
번호 분류 제목 날짜 추천 수
공지 기타 승호 관련 사이트 목록 ver. 1.9 (14. 10. 09 갱신) 37 2011.09.08 0
공지 기타 BLAQSSONG MAIN IMAGE COLLECTION 17 2012.03.28 3
950 영상 131011 승호 직캠 @ 성남 국제게임페스티벌 1 2013.10.19 1
949 영상 131017 배배다 시사회 기사영상 6 2013.10.17 1
948 영상 131016 승호 홈페이지의 생일 기념 영상 4 2013.10.17 1
947 영상 131016 엠블랙 ZEPP Tour @ Mnet Japan 2 2013.10.17 0
946 영상 130818 승호 - No Love/OBD/굿럽 @ Zepp Tour Japan 3 2013.10.17 1
945 영상 엠블랙, 남미 탑 밴드 레이크와 'CRUZADOS' 4 2013.10.16 1
944 영상 131016 승호 홈페이지의 생일 기념 영상 9 2013.10.16 3
943 영상 131014 승호 직캠 @ 삼척 시민의 날 1 2013.10.15 0
942 영상 131014 ZEPP Tokyo @ 韓Chu 1 2013.10.15 1
941 영상 131011 승호 직캠 @ 성남 국제게임페스티벌 2 2013.10.14 1
940 영상 131013 티맥스 신민철 스페인 공연 소개 영상 1 2013.10.14 0
939 영상 131010 뮤콘 합동무대 with REIK 1 2013.10.12 1
938 영상 2013 뮤콘 합동무대 유스트림 영상 2 2013.10.11 1
937 영상 130208 승호 직캠 @ THE BLAQ FUN-CH 2 2013.10.10 1
936 영상 131007 韓Chu (일본방송) 3 2013.10.09 1
935 영상 131008 대만 콘서트 인사 영상 4 2013.10.08 1
934 영상 131001 승호 직캠 - 토크 @ 서해대 7 2013.10.02 0
933 영상 130927 승호 직캠 @ 대전 프리 페스티벌 2 2013.10.02 1
932 영상 130927 승호 직캠 - Celebrate @ 대전 프리 페스티벌 1 2013.09.30 1
931 영상 130927 승호 직캠 - 스모키걸 @ 대전 프리 페스티벌 7 2013.09.29 2
930 영상 130927 승호 직캠 @ 대전 프리 페스티벌 3 2013.09.28 1
929 영상 130831 승호 - 스모키걸 @ KOREA IN MOTION FESTIVAL 2 2013.09.27 2
928 영상 130923 엠블랙 @ MTV 대만 7 2013.09.25 1
927 영상 130907 엠블랙 - 포토월 @ 뮤직뱅크 인 이스탄불 2 2013.09.24 1
926 영상 130831 승호 직캠 @ KOREA IN MOTION FESTIVAL 2 2013.09.24 1
925 영상 130824 승호 직캠 @ 신촌 팬사인회 2 2013.09.24 1
924 영상 130919 엠블랙 컷 @ 아육대 4 2013.09.19 1
923 영상 130919 스모키걸/엔딩 @ 인천한류콘서트 2 2013.09.19 1
922 영상 130917 엠블랙 컷 @ 피크닉라이브 소리풍경 제작진 코멘터리 1 2013.09.17 2
921 영상 130913 KBS 뮤직뱅크 인 이스탄불 4 2013.09.13 1
920 영상 [직캠] 뮤뱅 칠레 강남스타일 승호 4 2013.09.13 0
919 영상 130907 Telehit 엠블랙 특별방송 풀버전 (FULL ver.) + 인터뷰 발번역 추가 5 2013.09.12 1
918 영상 런닝맨 오프닝 아이돌 안무연습영상 편집본 1 2013.09.12 1
917 영상 130903 아육대 승호 포커스 _ 후배 아이돌들 하고도 잘 어울리네 ^^ 4 2013.09.10 1
916 영상 SBS 공식 유툽에 런닝맨 엠블랙컷이 올라왔어 클릭 한 번씩 하자! 4 2013.09.10 1
915 영상 [영상] 130908 대구 TBC 뉴스 터키공연 보도에 나온 엠블랙 1 2013.09.09 0
914 영상 130907 승호 - 스페셜무대 @ 뮤직뱅크 인 이스탄불 8 2013.09.09 1
913 영상 130908 런닝맨 승호 & 준 Cut 3 2013.09.09 1
912 영상 130903 승호 직캠 @ 아육대 3 2013.09.08 1
911 영상 [영상] 130907 멕시코 Telehit 엠블랙 특별 방송 4 2013.09.08 1
910 영상 130907 뮤직뱅크 인 이스탄불 직캠 모음 12 2013.09.08 1
909 영상 우리결혼했어요 (세계판) OST "Tonight" 메이킹 3 2013.09.07 1
908 영상 MBLAQ - Top Chinese Music 인사영상 2 2013.09.07 1
907 영상 멕시코 Telehit tv 엠블랙 특별방송 예고편 3 2013.09.06 1
906 영상 130904 제1회 하와이 국제 뮤직 어워드 페스티발 축하영상 1 2013.09.05 1
905 영상 130904 삼성 멕시코 공식 유툽에 올라 온 엠블랙 멕시코 공연 관련 영상 2 2013.09.05 2
904 영상 130903 아육대 MBLAQ 직캠 7 2013.09.04 0
903 영상 130901 인천한류관광콘서트 포토월 기사영상 1 2013.09.01 0
902 영상 130901 런닝맨 예고 2 2013.09.01 0
901 영상 130831 승호 직캠 @ KOREA IN MOTION FESTIVAL 개막식 4 2013.09.01 0
900 영상 130831 KOREA IN MOTION FESTIVAL 개막식 직캠 7 2013.09.01 1
899 영상 130824 승호 직캠 @ 신촌 팬사인회 2 2013.08.31 2
898 영상 에콰도르 TV 전국음악채널에 소개된 'NO LOVE' 그리고 멕시코 공연 홍보효과 1 2013.08.30 0
897 영상 130829 승호 & 미르 @ 화수분 4 2013.08.30 1
896 영상 2013 KOINMO 홍보대사_엠블랙(MBLAQ) 3 2013.08.29 1
895 영상 130824 승호 - 더워서 못 살겠어요 @ 신촌 팬사인회 3 2013.08.29 1
894 영상 130824 승호 직캠 @ 신촌 팬사인회 2 2013.08.27 1
893 영상 130826 뮤직뱅크 터키 이스탄불 공연 인사말 2013.08.27 1
892 영상 [직캠] 130808 멕시코 콘서트 리허설 _ Sexy Beat (+영상추가) 3 2013.08.25 1
891 영상 130824 승호 직캠 @ 신촌 팬사인회 11 2013.08.25 1
890 영상 130824 승호 직캠 @ 여의도 팬사인회 3 2013.08.25 1
889 영상 승호 & 미르 화수분 예고 7 2013.08.23 1
888 영상 130815 승호 직캠 - 미쳐볼래 @ Zepp Tour in Nagoya 4 2013.08.22 1
887 영상 130710 슈키라 승호 출근길 + 청소 라이브 1 2013.08.18 0
886 영상 130817 엠블랙 @ 멕시코 프로레슬링 중계방송 2 2013.08.18 1
885 영상 130816 승호 피아노 (오디오) - 일본 나고야 ZEPP Tour 3 2013.08.18 1
884 영상 엠블랙 콘서트 @ 멕시코 TV 2 2013.08.15 1
883 영상 MBLAQ EN MÉXICO 4 2013.08.14 1
882 영상 에콰도르 TV에 나온 LOVE BEAT 앨범소개 2 2013.08.14 0
881 영상 130808 멕시코 공연 승호 개인무대 직캠 3 2013.08.14 2
880 영상 130808 엠블랙과 REIK @ 1:N (TELEVISA 뉴스, 고화질) 2 2013.08.13 1
879 영상 130811 엠블랙 멕시코공연 @ Soundline 2 2013.08.12 1
878 영상 No Love 자켓 사진 촬영 메이킹과 기도 녹음 현장 6 2013.08.12 2
877 영상 No Love 뮤직비디오 3 2013.08.12 2
876 영상 130805 MBLAQ 'SEXY BEAT' showcase @ Pop pop seoul (일본방송) 3 2013.08.12 1
875 영상 130811 빵터진 승호 @ 인천공항 3 2013.08.12 0
874 영상 130811 인천공항 입국 기사사진 4 2013.08.11 1
873 영상 130810 멕시코 공항 출국하러 온 엠블랙 4 2013.08.11 1
872 영상 130810 스모키걸/토크/모나리자 @ 부산바다축제 2013.08.11 0
871 영상 130810 엠블랙- 멕시코에서의 마지막 순간 3 2013.08.10 2
870 영상 [플짤] 130801 해운대 꽈당 미르 보고 웃는 승호 5 2013.08.10 1
869 영상 130808 멕시코공연 직캠 모음2 7 2013.08.10 2
868 영상 130809 멕시코 공연 @ "HOY" (멕시코방송) 2 2013.08.10 1
867 영상 130809 멕시코 공연 @ 1:N (TELEVISA 뉴스) 2 2013.08.09 1
866 영상 130808 멕시코공연 직캠 모음 6 2013.08.09 1
» 영상 [영상] 130808 El Universal TV 기자회견 보도 영상 3 2013.08.09 1
864 영상 130807 MBLAQ과 REIK 기자회견 영상 - Part 2 1 2013.08.09 0
863 영상 130808 엠블랙과 REIK @ 1:N (TELEVISA 뉴스) 5 2013.08.08 1
862 영상 130807 MBLAQ과 REIK 기자회견 영상 - Part 1 2 2013.08.08 2
861 영상 130807 승호 @ 주간아이돌 2 2013.08.08 0
860 영상 ¡MBLAQ 8 de agosto! (엠블랙 8월8일) - 멕시코 공연 프로모 영상 6 2013.08.07 2
859 영상 130806 엠블랙 멕시코 공항 입국 영상 17 2013.08.06 2
858 영상 [직캠] 대전팬싸에서 소주회오리 만드는 승호 4 2013.08.04 2
857 영상 130802 더드라마틱 승호 영상 모음 1 2013.08.03 0
856 영상 130802 더드라마틱 1회 4 2013.08.03 1
855 영상 130802 더드라마틱 엠블랙 촬영 뒷이야기.avi 3 2013.08.03 1
854 영상 130727 승호 - 비트박스 @ 봉화은어축제 4 2013.08.02 2
853 영상 130721 "소녀" 따라 부르는 승호 @ 평촌 팬사인회 4 2013.08.01 2
852 영상 엠블랙 컷 @ JJANG! 1 2013.08.01 1
851 영상 130727 MBLAQ - 스모키걸/토크/전쟁이야 @ 울산썸머페스티벌 2 2013.07.31 1
목록
Board Pagination ‹ Prev 1 ... 5 6 7 8 9 ... 16 Next ›
/ 16

나눔글꼴 설치 안내


이 PC에는 나눔글꼴이 설치되어 있지 않습니다.

이 사이트를 나눔글꼴로 보기 위해서는
나눔글꼴을 설치해야 합니다.

설치 취소

Designed by sketchbooks.co.kr / sketchbook5 board skin

Sketchbook5, 스케치북5

Sketchbook5, 스케치북5

Sketchbook5, 스케치북5

Sketchbook5, 스케치북5